When you browse on this site, cookies collect data to enhance your experience and personalize the content and advertising you see.
Visit our Privacy Policy to learn more. By continuing to use the site, you agree to this use of cookies and data.
  • In United Kingdom
  • List of Countries
  • For 7 days
  • Water Temperature
  • Satellite Maps
  • Weather Map
  • Weather Widgets
  • user-avatar
    Login

    Hourly Weather Maseru

    Today, 24 July, Wednesday

    Time Temperature Precipitation Wind Pressure Humidity
    00:00 +5°C° 0 mm 6 mps 631 mmHg 41%
    01:00 +5°C° 0 mm 5 mps 631 mmHg 57%
    02:00 +2°C° 0 mm 5 mps 631 mmHg 73%
    03:00 +2°C° 0 mm 5 mps 631 mmHg 75%
    04:00 +1°C° 0 mm 4 mps 632 mmHg 77%
    05:00 +1°C° 0 mm 4 mps 633 mmHg 79%
    06:00 +1°C° 0 mm 4 mps 633 mmHg 77%
    07:00 +2°C° 0 mm 3 mps 634 mmHg 76%
    08:00 +2°C° 0 mm 3 mps 635 mmHg 74%
    09:00 +3°C° 0 mm 4 mps 635 mmHg 65%
    10:00 +4°C° 0 mm 4 mps 636 mmHg 55%
    11:00 +5°C° 0 mm 4 mps 636 mmHg 46%
    12:00 +7°C° 0 mm 4 mps 636 mmHg 40%
    13:00 +8°C° 0 mm 4 mps 636 mmHg 35%
    14:00 +10°C° 0 mm 4 mps 635 mmHg 30%
    15:00 +10°C° 0 mm 3 mps 636 mmHg 31%
    16:00 +10°C° 0 mm 2 mps 636 mmHg 32%
    17:00 +10°C° 0 mm 1 mps 636 mmHg 33%
    18:00 +8°C° 0 mm 1 mps 635 mmHg 41%
    19:00 +6°C° 0 mm 1 mps 635 mmHg 49%
    20:00 +2°C° 0 mm 0 mps 634 mmHg 57%
    21:00 +2°C° 0 mm 0 mps 634 mmHg 59%
    22:00 +3°C° 0 mm 1 mps 635 mmHg 61%
    23:00 +2°C° 0 mm 1 mps 635 mmHg 63%

    Tomorrow, 25 July, Thursday

    Time Temperature Precipitation Wind Pressure Humidity
    00:00 +2°C° 0 mm 1 mps 635 mmHg 64%
    01:00 +2°C° 0 mm 1 mps 635 mmHg 65%
    02:00 +1°C° 0 mm 1 mps 634 mmHg 66%
    03:00 +1°C° 0 mm 1 mps 635 mmHg 65%
    04:00 +1°C° 0 mm 1 mps 635 mmHg 64%
    05:00 +1°C° 0 mm 1 mps 635 mmHg 64%
    06:00 +2°C° 0 mm 1 mps 636 mmHg 58%
    07:00 +3°C° 0 mm 1 mps 636 mmHg 51%
    08:00 +5°C° 0 mm 1 mps 637 mmHg 45%
    09:00 +7°C° 0 mm 2 mps 638 mmHg 37%
    10:00 +10°C° 0 mm 2 mps 638 mmHg 29%
    11:00 +13°C° 0 mm 3 mps 639 mmHg 20%
    12:00 +14°C° 0 mm 3 mps 639 mmHg 18%
    13:00 +17°C° 0 mm 3 mps 639 mmHg 16%
    14:00 +18°C° 0 mm 3 mps 639 mmHg 14%
    15:00 +17°C° 0 mm 3 mps 639 mmHg 16%
    16:00 +16°C° 0 mm 2 mps 638 mmHg 18%
    17:00 +15°C° 0 mm 2 mps 638 mmHg 20%
    18:00 +12°C° 0 mm 1 mps 638 mmHg 30%
    19:00 +9°C° 0 mm 1 mps 637 mmHg 40%
    20:00 +6°C° 0 mm 0 mps 636 mmHg 49%
    21:00 +5°C° 0 mm 0 mps 637 mmHg 50%
    22:00 +6°C° 0 mm 1 mps 637 mmHg 50%
    23:00 +5°C° 0 mm 1 mps 637 mmHg 51%

    Day after tomorrow, 26 July, Friday

    Time Temperature Precipitation Wind Pressure Humidity
    00:00 +5°C° 0 mm 1 mps 637 mmHg 53%
    01:00 +5°C° 0 mm 1 mps 637 mmHg 55%
    02:00 +4°C° 0 mm 1 mps 636 mmHg 56%
    03:00 +4°C° 0 mm 1 mps 636 mmHg 57%
    04:00 +4°C° 0 mm 1 mps 636 mmHg 57%
    05:00 +3°C° 0 mm 1 mps 636 mmHg 57%
    06:00 +5°C° 0 mm 1 mps 637 mmHg 49%
    07:00 +6°C° 0 mm 1 mps 638 mmHg 41%
    08:00 +7°C° 0 mm 0 mps 639 mmHg 34%
    09:00 +10°C° 0 mm 0 mps 640 mmHg 28%
    10:00 +14°C° 0 mm 0 mps 641 mmHg 22%
    11:00 +17°C° 0 mm 0 mps 642 mmHg 15%
    12:00 +20°C° 0 mm 1 mps 642 mmHg 14%
    13:00 +21°C° 0 mm 1 mps 642 mmHg 13%
    14:00 +21°C° 0 mm 2 mps 641 mmHg 11%
    15:00 +20°C° 0 mm 1 mps 641 mmHg 14%
    16:00 +19°C° 0 mm 1 mps 640 mmHg 17%
    17:00 +15°C° 0 mm 0 mps 640 mmHg 20%
    18:00 +14°C° 0 mm 1 mps 639 mmHg 25%
    19:00 +12°C° 0 mm 1 mps 639 mmHg 30%
    20:00 +10°C° 0 mm 1 mps 638 mmHg 36%
    21:00 +9°C° 0 mm 1 mps 638 mmHg 34%
    22:00 +9°C° 0 mm 1 mps 638 mmHg 33%
    23:00 +7°C° 0 mm 2 mps 638 mmHg 31%

    27 July, Saturday

    Time Temperature Precipitation Wind Pressure Humidity
    00:00 +6°C° 0 mm 2 mps 638 mmHg 33%
    01:00 +6°C° 0 mm 2 mps 638 mmHg 36%
    02:00 +5°C° 0 mm 2 mps 638 mmHg 38%
    03:00 +5°C° 0 mm 2 mps 638 mmHg 42%
    04:00 +5°C° 0 mm 2 mps 638 mmHg 45%
    05:00 +4°C° 0 mm 2 mps 638 mmHg 49%
    06:00 +5°C° 0 mm 2 mps 639 mmHg 46%
    07:00 +6°C° 0 mm 2 mps 640 mmHg 43%
    08:00 +7°C° 0 mm 2 mps 640 mmHg 40%
    09:00 +10°C° 0 mm 2 mps 641 mmHg 36%
    10:00 +13°C° 0 mm 3 mps 641 mmHg 32%
    11:00 +17°C° 0 mm 4 mps 642 mmHg 27%
    12:00 +18°C° 0 mm 4 mps 642 mmHg 25%
    13:00 +19°C° 0 mm 4 mps 641 mmHg 23%
    14:00 +20°C° 0 mm 4 mps 640 mmHg 22%
    15:00 +19°C° 0 mm 3 mps 640 mmHg 23%
    16:00 +18°C° 0 mm 2 mps 639 mmHg 25%
    17:00 +17°C° 0 mm 2 mps 639 mmHg 26%
    18:00 +14°C° 0 mm 1 mps 638 mmHg 34%
    19:00 +12°C° 0 mm 1 mps 638 mmHg 41%
    20:00 +9°C° 0 mm 1 mps 637 mmHg 49%
    21:00 +9°C° 0 mm 1 mps 637 mmHg 51%
    22:00 +8°C° 0 mm 1 mps 637 mmHg 54%
    23:00 +8°C° 0 mm 1 mps 637 mmHg 57%

    28 July, Sunday

    Time Temperature Precipitation Wind Pressure Humidity
    00:00 +7°C° 0 mm 1 mps 636 mmHg 59%
    01:00 +7°C° 0 mm 1 mps 636 mmHg 60%
    02:00 +6°C° 0 mm 1 mps 636 mmHg 62%
    03:00 +6°C° 0 mm 1 mps 636 mmHg 63%
    04:00 +6°C° 0 mm 1 mps 635 mmHg 63%
    05:00 +5°C° 0 mm 1 mps 635 mmHg 64%
    06:00 +7°C° 0 mm 1 mps 636 mmHg 56%
    07:00 +8°C° 0 mm 1 mps 637 mmHg 49%
    08:00 +10°C° 0 mm 1 mps 638 mmHg 42%
    09:00 +13°C° 0 mm 1 mps 639 mmHg 35%
    10:00 +16°C° 0 mm 1 mps 639 mmHg 28%
    11:00 +18°C° 0 mm 0 mps 640 mmHg 21%
    12:00 +21°C° 0 mm 1 mps 639 mmHg 19%
    13:00 +22°C° 0 mm 1 mps 639 mmHg 17%
    14:00 +23°C° 0 mm 2 mps 639 mmHg 15%
    15:00 +21°C° 0 mm 2 mps 638 mmHg 17%
    16:00 +20°C° 0 mm 1 mps 638 mmHg 19%
    17:00 +19°C° 0 mm 1 mps 637 mmHg 22%
    18:00 +16°C° 0 mm 1 mps 636 mmHg 29%
    19:00 +13°C° 0 mm 1 mps 636 mmHg 37%
    20:00 +11°C° 0 mm 1 mps 635 mmHg 45%
    21:00 +10°C° 0 mm 1 mps 635 mmHg 47%
    22:00 +9°C° 0 mm 1 mps 635 mmHg 50%
    23:00 +8°C° 0 mm 0 mps 635 mmHg 53%

    29 July, Monday

    Time Temperature Precipitation Wind Pressure Humidity
    00:00 +8°C° 0 mm 1 mps 635 mmHg 54%
    01:00 +8°C° 0 mm 1 mps 634 mmHg 55%
    02:00 +8°C° 0 mm 1 mps 634 mmHg 56%
    03:00 +8°C° 0 mm 1 mps 634 mmHg 55%
    04:00 +7°C° 0 mm 1 mps 634 mmHg 55%
    05:00 +7°C° 0 mm 1 mps 634 mmHg 55%
    06:00 +8°C° 0 mm 1 mps 634 mmHg 47%
    07:00 +10°C° 0 mm 1 mps 635 mmHg 40%
    08:00 +11°C° 0 mm 1 mps 636 mmHg 33%
    09:00 +14°C° 0 mm 2 mps 637 mmHg 27%
    10:00 +17°C° 0 mm 3 mps 637 mmHg 22%
    11:00 +20°C° 0 mm 4 mps 638 mmHg 16%
    12:00 +21°C° 0 mm 4 mps 637 mmHg 15%
    13:00 +23°C° 0 mm 5 mps 637 mmHg 13%
    14:00 +24°C° 0 mm 6 mps 636 mmHg 11%
    15:00 +23°C° 0 mm 5 mps 636 mmHg 13%
    16:00 +21°C° 0 mm 4 mps 635 mmHg 14%
    17:00 +20°C° 0 mm 4 mps 635 mmHg 15%
    18:00 +18°C° 0 mm 3 mps 634 mmHg 18%
    19:00 +16°C° 0 mm 3 mps 634 mmHg 20%
    20:00 +12°C° 0 mm 3 mps 633 mmHg 23%
    21:00 +13°C° 0 mm 2 mps 633 mmHg 24%
    22:00 +12°C° 0 mm 2 mps 633 mmHg 25%
    23:00 +10°C° 0 mm 2 mps 632 mmHg 26%
    Show more